Location: Carella
(45.8167°N, 9.2667°E)
Time: 22:46:08
(UTC+00:00)

Cosmos 1953 - Pass Details

Date: 30 March 2020
Orbit: 539 x 558 km, 82.5° (Epoch: 03 June)

Event Time Altitude Azimuth Distance (km) Brightness Sun altitude
Exits shadow 18:45:22 12° 133° (SE) 1,683 4.2 -10.4°
Maximum altitude 18:47:58 21° 88° (E) 1,253 3.6 -10.8°
Drops below altitude 10° 18:50:59 10° 39° (NE) 1,814 4.8 -11.3°
Sets 18:53:32 0° 23° (NNE) 2,714 5.8 -11.7°
